Regional Weather Roundup
Issued by NWS

Home | Current Version | Previous Version | Text Only | Print | Product List | Glossary On
Versions: 1 2 3 4 5 6 7 8 9 10 11 12 13 14 15 16 17 18 19 20 21 22 23 24 25 26 27
000
ASUS45 KBOU 010610
RWRCO

WEATHER ROUNDUP FOR COLORADO
NATIONAL WEATHER SERVICE DENVER/BOULDER CO
1200 AM MDT SAT OCT 01 2016

NOTE: "FAIR" INDICATES FEW OR NO CLOUDS BELOW 12000 FEET WITH NO
SIGNIFICANT WEATHER AND/OR OBSTRUCTIONS TO VISIBILITY.

COZ001>005-013-030-031-010700-
...NORTHWEST COLORADO...

CITY           SKY/WX    TMP DP  RH WIND       PRES   REMARKS
CRAIG          FAIR      44  42  93 CALM      30.27R
HAYDEN         FAIR      48  41  76 E9        30.28S
MEEKER         FAIR      47  43  86 NE7       30.28R
MOUNT WERNER   NOT AVBL
STEAMBOAT SPGS FAIR      46  43  89 CALM      30.31R
WALDEN           N/A     37  36  93 SE6       30.36S
$$

COZ006>008-011-010700-
...WEST CENTRAL VALLEYS...

CITY           SKY/WX    TMP DP  RH WIND       PRES   REMARKS
GRAND JUNCTION FAIR      59  49  69 E9        30.19R
MONTROSE       FAIR      51  44  77 SE6       30.26S
EAGLE          FAIR      46  41  81 CALM      30.32R
RIFLE          FAIR      51  46  83 CALM      30.25R
DELTA          FAIR      56  46  70 CALM      30.23
NUCLA          FAIR      50  45  81 E6        30.29S
$$

COZ017>023-064>068-010700-
...SOUTHWEST COLORADO...

CITY           SKY/WX    TMP DP  RH WIND       PRES   REMARKS
DURANGO        FAIR      47  42  83 CALM      30.28R
CORTEZ         FAIR      48  43  82 E5        30.25R
PAGOSA SPRINGS FAIR      48  38  70 CALM      30.34R
TELLURIDE      FAIR      43  40  91 SE7       30.43S
WOLF CREEK PAS FAIR      36  32  87 MISG      30.57S
$$

COZ009-010-012-014-032>034-037-058>063-010700-
...CENTRAL COLORADO...

CITY           SKY/WX    TMP DP  RH WIND       PRES   REMARKS
ASPEN          FAIR      44  39  82 S6        30.34S
BUENA VISTA    MOCLDY    47  43  85 CALM      30.37S
COPPER MTN     FAIR      41  34  75 W5        30.56S
BERTHOUD PASS  FAIR      32  21  64 NW12G18   30.58S WCI  23
COTTONWOOD PAS MOCLDY    48  43  81 CALM      30.46S
GUNNISON       FAIR      43  39  87 CALM      30.36S
KREMMLING      FAIR      37  36  93 CALM      30.36S FOG
LEADVILLE      CLOUDY    41  34  76 CALM      30.44S
MONARCH PASS   FOG       37  36  93 NE10      30.65S VSB<1/4
SALIDA         MOCLDY    51  47  84 CALM      30.42S
SUNLIGHT       FAIR      45  37  76 CALM      30.53S
WILKERSON PASS LGT RAIN  37  36  93 SW3       30.55F
$$

COZ069>075-010700-
...SAN LUIS VALLEY/SANGRE DE CRISTO MOUNTAINS...

CITY           SKY/WX    TMP DP  RH WIND       PRES   REMARKS
ALAMOSA        FAIR      48  45  89 VRB3      30.32R
LA VETA PASS   RAIN      43  37  81 MISG      30.47F
SAGUACHE       FAIR      46  37  71 NW12      30.34R
$$

COZ035-036-038>040-010700-
...NORTHERN COLORADO FRONT RANGE...

CITY           SKY/WX    TMP DP  RH WIND       PRES   REMARKS
DENVER INTL AP FAIR      59  46  62 SW13      30.18F
DMNS CITY PARK   N/A     57  47  71 S3G9      30.18S
AURORA         PTCLDY    54  47  77 S7        30.20F
FRONT RANGE AP FAIR      59  46  63 SW8       30.19F
ERIE MUNI ARPT FAIR      51  46  81 CALM      30.17S
BOULDER MUN AP FAIR      55  46  71 CALM      30.18S
CENTENNIAL     FAIR      54  46  74 SE8       30.21S
BROOMFIELD     FAIR      55  45  67 W3        30.20S
FORT COLLINS   FAIR      55  48  76 N7        30.17R
LONGMONT       FAIR      55  45  71 NW3       30.18F
$$

COZ041-046-047-076>085-087-088-010700-
...PIKES PEAK/PALMER DIVIDE AND SOUTHERN FOOTHILLS...

CITY           SKY/WX    TMP DP  RH WIND       PRES   REMARKS
COLO. SPRINGS  MOCLDY    56  49  77 NE9       30.22F
A. F. ACADEMY  MOCLDY    50  49  99 N8        30.24F
SCHRIEVER AFB  NOT AVBL
ELLICOTT       NOT AVBL
FALCON         FAIR      52  44  73 NW5       30.27S
FORT CARSON    FAIR      57  49  76 N5        30.19S
LIMON          FAIR      48  42  80 CALM      30.20F
MONUMENT HILL  FAIR      50  43  76 SW5       30.29S
TRINIDAD       FAIR      58  48  69 S6        30.24S
$$

COZ042>045-048>051-090-091-010700-
...NORTHEAST COLORADO...

CITY           SKY/WX    TMP DP  RH WIND       PRES   REMARKS
GREELEY ARPT   FAIR      52  43  71 N8        30.16F
AKRON          FAIR      56  44  64 S12       30.17S
BURLINGTON     FAIR      55  44  66 SE9       30.16S
WRAY           NOT AVBL
STERLING       FAIR      55  45  67 W3        30.13F
HOLYOKE        FAIR      59  46  63 S3        30.16R
FORT MORGAN    FAIR      53  43  68 E3        30.16S
$$

COZ086-089-092>099-010700-
...SOUTHEAST COLORADO...

CITY           SKY/WX    TMP DP  RH WIND       PRES   REMARKS
PUEBLO         MOCLDY    62  51  67 W9        30.15F
LA JUNTA       FAIR      60  47  61 NE10      30.10F
LAMAR          FAIR      55  46  71 CALM      30.10R
SPRINGFIELD      N/A     54  48  80 CALM      30.12S
$$




USA.gov is the U.S. government's official web portal to all federal, state and local government web resources and services.